COSMOS 2251 DEB, 34037

Orbit data source: Space-Track

COSMOS 2251 DEB, 34037 is space debris in LEO originally from a launch on Wed, 16 Jun 1993 UTC launched from the Plesetsk Missile And Space Complex (PKMTR). The debris from Iridium 33, an American commercial communications satellite, has been tracked extensively since its accidental collision with the defunct Russian satellite Cosmos 2251 in 2009. This event, occurring at high speed in low Earth orbit (LEO), generated thousands of pieces of space debris, significantly increasing the risk of further collisions. The Iridium 33 debris cloud has impacted space traffic management and orbital debris mitigation strategies, making it a subject of ongoing study in space situational awareness.

Loading next visibility...
Identifier
34037, 1993-036HY
Orbit
LEO
Country
Flag of CISCIS
Related business
Manufacturer
Unknown
Mission
Spacecraft
Bus & Motor
Unknown
Mass
Unknown
Launch date (UTC)
Icon of a cake. It is the launch day of the satellite!1993-06-16 (33 years ago)
Launch vehicle
Unknown
Launch site
Plesetsk Missile And Space Complex (PKMTR)
Object type
Payload
Rocket body
Debris
Shape & HBR
Unknown shape, 0.2 m
Radar Cross Section
Medium (>0.1 m² and <1 m²)

Expand to show TLE details & history
Last TLE update: 5 hours ago

TLE from 5 hours ago
0 COSMOS 2251 DEB
1 34037U 93036HY  26167.18173007  .00001061  00000-0  37377-3 0  9995
2 34037  74.0507  70.8696 0053012  76.0529 284.6511 14.35211211903772
Epoch: 2026-06-16T04:21Z
TLE epoch observation values (Epoch: 2026-06-16T04:21:41.478Z)
Latitude
-0.00001°
Longitude
100.98933°
Altitude
767.572 km
Speed
7.475 km/s
True Right ascension
04h 43m 28s
True Declination
0° 00' 00"
Sunlit
Object was in daylight at epoch
Visualization orbit readout
Latitude
Unknown
Longitude
Unknown
Altitude
Unknown
Speed
Unknown
Apparent Right ascension
Unknown
Apparent Declination
Unknown
Sunlit
N/A
Visualization observer readout
Local Sidereal Time
20:18:23
Azimuth
Unknown
Elevation
Unknown
Doppler factor
Unknown
Orbital elements
Apogee altitude
809.892 km
Perigee altitude
734.084 km
Semi-major axis
7,150.125 km
Eccentricity
0.0053
Inclination
74.0507°
RAAN
70.8696°
Arg. of periapsis
76.0529°
True anomaly
284.0624°
Mean anomaly
284.6511°
Eccentric anomaly
284.35685°
Mean motion
3.58982 °/min
Orbital period
100.28 mins
BSTAR
0.00037377
Loading maneuver chart data...
Computing Atmospheric mass density...

Documentation

Showing up to 5 results
|